Regional Weather Roundup
Issued by NWS

Home | Current Version | Previous Version | Graphics & Text | Print | Product List | Glossary On
Versions: 1 2 3 4 5 6 7 8 9 10 11 12 13 14 15 16 17 18 19 20 21 22 23 24 25 26 27 28 29 30 31 32 33 34 35 36 37 38 39 40 41 42 43 44 45 46 47 48 49 50
000
ASUS43 KLSX 202059
RWRMO

WEATHER SUMMARY FOR MISSOURI
NATIONAL WEATHER SERVICE SPRINGFIELD MO
300 PM CST SAT DEC 20 2014

NOTE: "FAIR" INDICATES FEW OR NO CLOUDS BELOW 12,000 FEET WITH NO
       SIGNIFICANT WEATHER AND/OR OBSTRUCTIONS TO VISIBILITY.
       CURRENT SKY AND/OR WEATHER CONDITIONS ARE NOT AVAILABLE FOR
       CHILLICOTHE AND FARMINGTON.

MOZ001>031-035>038-043-044-053-054-202200-
...NORTHERN AND WESTERN MISSOURI...

CITY           SKY/WX    TMP DP  RH WIND       PRES   REMARKS
KANSAS CTY INT CLOUDY    45  38  76 S10       30.10S
KANSAS C DTWN  CLOUDY    47  38  71 S12       30.12R
LEE`S SUMMIT   CLOUDY    43  36  76 S12       30.12F
ST JOSEPH      CLOUDY    43  37  79 S5        30.11S
CHILLICOTHE      N/A     38  34  85 S7        30.15S
KIRKSVILLE     CLOUDY    38  35  89 S7        30.15S

$$
MOZ066>068-077>081-088>096-101>105-202200-
...SOUTHWEST MISSOURI...

CITY           SKY/WX    TMP DP  RH WIND       PRES   REMARKS
SPRINGFIELD    CLOUDY    42  36  79 SW8       30.17S
JOPLIN         CLOUDY    45  35  68 S9        30.18S

$$
MOZ032>034-039>042-045>050-055>058-069>072-202200-
...CENTRAL MISSOURI...

CITY           SKY/WX    TMP DP  RH WIND       PRES   REMARKS
COLUMBIA       CLOUDY    41  36  82 S5        30.18S
JEFFERSON CITY CLOUDY    43  35  73 S3        30.20S
ROLLA          CLOUDY    41  34  76 W3        30.17S
SEDALIA        CLOUDY    41  35  79 S8        30.17S
OSAGE BEACH    CLOUDY    43  34  70 SW6       30.18S

$$
MOZ051-052-059>065-202200-
...EAST CENTRAL MISSOURI...

CITY           SKY/WX    TMP DP  RH WIND       PRES   REMARKS
ST LOUIS INTL  CLOUDY    43  32  65 SE8       30.23R
SPIRIT OF STL  CLOUDY    43  33  68 S3        30.21S
ST CHARLES     CLOUDY    41  34  76 SE7       30.22R

$$
MOZ072>076-082>087-097>100-106>115-202200-
...SOUTH CENTRAL AND SOUTHEAST MISSOURI...

CITY           SKY/WX    TMP DP  RH WIND       PRES   REMARKS
CAPE GIRARDEAU CLOUDY    43  31  62 CALM      30.24S
FARMINGTON     CLOUDY    39  34  81 CALM      30.22S
POPLAR BLUFF   CLOUDY    44  32  62 CALM      30.23S
WEST PLAINS    CLOUDY    42  35  76 S7        30.20R

$$



USA.gov is the U.S. government's official web portal to all federal, state and local government web resources and services.